Vertical_Velocity
-1 -1 -4 -2 -0 1 3 1 -2 -0 2 1 -2 7 -0 1 -2 -2 -3 -2 -1 -1 -2 2 9 4 2 -1 10 2 -8 -1 -1 -1 -2 2 -1 3 0 2 3 -2 -3 -0 -6
-3 -2 -2 -1 1 1 -3 -7 1 -2 -1 0 8 3 5 -3 -1 -3 -4 -4 3 2 5 -8 -7 -8 -1 2 -2 -11 -4 0 -2 -1 -1 0 -2 0 -1 -0 1 -1 2 1 -0
1 -2 -2 1 -1 -0 -6 -7 -2 2 2 -1 -0 3 -1 -2 -4 -4 -1 8 5 1 1 1 1 1 -1 -2 -1 1 -2 -1 -0 2 1 -0 -2 -0 -1 -1 -1 -10 -4 -3 -4
-2 0 1 1 2 -4 -3 -1 -2 -1 7 -1 -5 -2 -3 -3 -10 -2 2 -2 5 0 -4 -2 -5 -5 -2 -2 2 -6 1 -1 -1 -1 -1 -1 1 -1 -0 -2 -5 1 -2 -5 -4
1 -2 -2 -3 -4 -1 -1 1 4 6 1 -0 1 -6 -7 3 3 1 -3 3 -1 7 -4 -6 -7 1 -1 0 -1 -2 -0 1 -1 -2 -0 1 -2 -3 -5 5 2 3 4 -0 2
-0 -0 -0 -1 0 2 2 3 2 -1 -0 0 -1 -2 -4 -3 -0 -1 -1 -4 -3 -9 -2 -2 0 3 2 1 -3 -0 1 -2 1 -1 0 0 -2 -2 -7 1 -0 5 0 1 -0
0 0 1 3 1 1 5 4 0 -4 -3 -4 -5 -3 -2 -1 1 2 -8 -1 -4 -2 -2 0 1 -4 2 -1 0 -0 -1 -2 -2 -1 -2 3 -2 -2 3 2 0 2 1 0 -5
-2 -1 1 2 3 3 4 1 -1 4 -1 -2 -3 -3 0 2 -2 -3 3 -1 -5 2 3 2 -2 -0 0 3 -2 -0 -4 -2 -7 1 -2 -4 -7 -6 7 -1 -3 0 3 -1 -1
0 -0 -2 -0 3 2 2 3 1 -3 -2 -2 -1 1 0 -1 -6 1 -1 -3 -5 -2 1 0 4 2 -1 -3 -5 -4 -1 -1 -7 1 -0 1 -4 -8 8 2 2 1 3 2 6
3 3 2 1 -1 4 3 -5 -5 -3 -1 2 -0 -4 -1 -2 3 -4 -1 -3 -2 -3 -12 1 0 -3 -3 -5 -3 -1 -1 -2 -0 -4 -2 -0 -3 -3 -3 0 -3 4 2 1 1
3 0 0 0 1 -4 -5 -4 1 1 -1 3 2 2 0 2 0 -6 -6 -4 1 4 -0 1 -10 -1 -0 0 -0 -0 -0 0 -2 -2 -0 -0 -1 -5 0 4 1 3 2 1 -1
-0 -1 1 -0 -2 -3 -4 -4 -1 -0 -4 6 0 -2 -4 -2 -3 0 -2 -2 -3 -1 -1 -10 -1 -1 0 -1 -1 -1 -0 -2 -5 -1 2 -1 -4 -1 0 0 -3 -4 2 1 -1
-1 -2 -3 -4 -4 -3 -3 -1 -0 -0 -2 -2 1 -3 -2 2 -1 -6 1 0 0 -2 -0 -4 -3 -0 -2 -1 -2 -1 -1 -0 -0 -2 -2 -1 -5 -3 -2 1 6 7 5 5 1
-1 -2 -3 -2 -2 -3 -1 -0 -0 -0 -8 -5 -4 -3 -3 1 -4 2 3 -1 -4 -0 -0 -1 0 -0 -1 -0 -1 0 -1 1 0 -3 -3 -4 -7 -1 -1 -0 0 1 2 2 -3
-1 -1 -2 -1 -2 -2 -2 -1 1 -0 -11 -10 -0 1 0 -4 -0 1 4 2 0 -0 -9 -9 -1 -1 -1 -1 1 -8 2 2 1 -0 -3 -7 -5 -10 -1 -0 -1 2 3 -1 2
-1 -0 -2 -1 -1 -2 -1 0 1 -25 -8 -1 -0 -1 -1 -0 -1 5 -8 1 3 -1 -2 -1 2 -2 -1 -1 -0 -1 -0 -2 -1 -2 -5 -2 -2 -5 0 -1 1 1 -1 1 -2
-1 -1 0 1 -4 -1 -1 1 -15 -11 -5 1 -1 -1 -0 -1 -3 -3 -2 -6 -4 -7 -4 -5 -1 -2 1 -4 -5 -5 -5 -5 -10 -10 -6 -1 -4 -3 -0 1 -4 -2 2 -0 -3
-1 1 0 -0 0 0 -1 -13 -8 -3 1 -1 -0 -1 -2 0 -1 -0 -1 -2 -4 -2 -2 -0 -16 -1 -2 -0 1 0 -4 -6 -2 -2 -5 -3 -0 -8 -2 2 -0 -2 -10 8 3
0 -0 -1 1 0 1 -1 -7 -8 -1 1 0 -3 -2 -0 -2 -1 -3 -1 0 2 0 -2 -2 -5 -4 -1 0 -4 -4 -5 -2 -4 -1 -5 -3 -6 -9 0 1 1 5 7 0 -1
-1 -1 1 2 1 0 -10 -2 -1 0 -0 -3 -1 -2 -0 -0 -4 -3 -2 0 -1 1 1 -2 -3 -1 -5 -2 -3 -3 -3 -14 -6 -4 -2 -4 -2 -7 -3 -3 -1 -2 2 4 2
0 -2 2 2 0 -1 -6 -2 -0 1 -2 -4 0 -1 1 0 -0 1 2 -1 -0 -1 -2 -0 -2 -15 -5 -1 1 -7 -3 -4 -4 -4 -2 -1 -10 -3 1 1 0 2 2 4 5
-2 -7 -0 0 -8 1 -1 0 2 1 3 -0 -3 -1 -0 0 -0 -1 -1 -3 0 0 -1 -0 -3 -1 -2 -4 0 -1 -0 -2 -5 -6 -2 0 -21 -1 0 5 -3 1 5 5 -1
-3 -1 1 -2 -6 -2 1 0 -0 -2 1 -1 -0 -1 -0 0 -4 -1 -0 -1 2 -1 -2 -2 -3 -4 -15 -14 -9 -1 -3 -1 -1 -2 -3 -0 -13 -2 -6 1 7 1 -1 -4 -2
-2 -9 -2 -2 1 -4 -1 1 0 -0 -0 0 -1 -2 -3 -1 -1 0 -1 -1 -1 0 0 -2 -0 -6 -7 -9 -2 -0 -2 -2 -1 -1 -3 -8 -7 -11 -3 0 -3 -4 -1 1 1
-1 -1 1 -4 -6 -1 -2 -1 0 -1 -0 -0 -2 -1 -1 -1 -1 -0 -1 -3 -4 1 2 -5 -2 1 -2 -1 1 0 1 -2 3 -6 -0 -9 1 -2 0 0 -1 1 -2 -3 -3
-3 -2 1 -1 1 -3 -1 1 -1 2 -3 0 -4 0 -1 -2 -3 -1 1 -0 -2 -1 -0 -1 -4 0 -5 -0 1 1 -1 0 -0 -2 1 1 -6 -1 -3 0 1 5 4 2 3
1 1 -1 1 -0 -5 -2 1 1 -2 3 -2 -3 -2 -2 -1 0 -2 -0 -1 -3 -0 -0 1 -1 -1 -4 -0 -1 -5 -5 -1 -1 -0 2 -0 -9 -1 -3 -3 -2 -6 -0 -1 3
Height
1519 1519 1520 1521 1521 1522 1523 1522 1527 1527 1529 1528 1530 1530 1530 1529 1529 1529 1528 1527 1525 1525 1524 1523 1523 1522 1519 1518 1517 1517 1536 1547 1538 1534 1531 1524 1523 1524 1527 1528 1530 1530 1532 1532 1535
1518 1518 1518 1518 1519 1519 1520 1525 1525 1528 1528 1530 1528 1533 1530 1530 1531 1528 1529 1528 1527 1525 1523 1521 1518 1517 1518 1519 1520 1520 1542 1535 1532 1530 1527 1527 1523 1524 1526 1529 1531 1533 1533 1534 1536
1515 1515 1516 1516 1516 1518 1521 1524 1528 1529 1529 1530 1534 1533 1531 1531 1532 1531 1531 1530 1528 1526 1525 1520 1518 1518 1517 1519 1522 1526 1536 1530 1530 1529 1524 1524 1524 1525 1527 1530 1530 1531 1532 1533 1535
1515 1515 1516 1517 1519 1521 1525 1528 1529 1530 1529 1533 1534 1534 1535 1533 1539 1534 1532 1530 1528 1525 1523 1520 1519 1520 1519 1525 1524 1531 1528 1528 1528 1526 1524 1524 1524 1526 1527 1528 1529 1528 1529 1532 1534
1515 1515 1517 1519 1522 1526 1528 1529 1529 1529 1530 1533 1537 1535 1537 1535 1534 1534 1531 1531 1531 1527 1524 1524 1524 1526 1525 1527 1525 1527 1529 1528 1527 1526 1524 1523 1524 1526 1525 1526 1527 1526 1528 1529 1531
1518 1520 1521 1524 1526 1527 1528 1528 1530 1532 1535 1537 1537 1536 1537 1537 1536 1534 1533 1531 1531 1530 1529 1528 1529 1528 1524 1525 1527 1528 1528 1528 1525 1525 1524 1524 1525 1526 1521 1524 1526 1525 1525 1527 1529
1520 1522 1523 1525 1527 1528 1529 1530 1532 1534 1536 1538 1538 1538 1539 1540 1537 1534 1534 1535 1534 1532 1530 1530 1530 1529 1528 1527 1528 1528 1530 1525 1522 1523 1524 1524 1526 1525 1519 1519 1522 1522 1522 1524 1527
1523 1525 1526 1528 1529 1531 1532 1533 1535 1537 1539 1539 1539 1539 1539 1539 1537 1536 1535 1535 1534 1532 1531 1531 1531 1530 1528 1528 1528 1530 1531 1538 1520 1519 1523 1525 1535 1518 1516 1516 1516 1518 1519 1522 1524
1527 1529 1530 1531 1533 1534 1534 1536 1537 1538 1539 1540 1540 1540 1538 1538 1538 1538 1537 1535 1532 1531 1531 1530 1531 1531 1529 1534 1542 1540 1545 1538 1529 1523 1525 1525 1528 1515 1513 1513 1512 1514 1516 1519 1522
1530 1531 1532 1533 1534 1535 1537 1538 1539 1540 1540 1539 1539 1541 1540 1540 1539 1538 1536 1534 1533 1532 1530 1530 1531 1535 1537 1543 1560 1549 1545 1541 1535 1528 1526 1525 1524 1513 1511 1506 1507 1508 1513 1518 1519
1531 1532 1534 1535 1536 1538 1539 1540 1544 1543 1540 1540 1540 1539 1540 1540 1540 1539 1536 1535 1533 1533 1535 1531 1540 1547 1539 1537 1538 1538 1541 1543 1534 1528 1527 1524 1523 1511 1509 1508 1508 1509 1513 1517 1519
1533 1534 1536 1537 1538 1540 1541 1541 1542 1544 1542 1541 1542 1541 1542 1542 1541 1539 1536 1535 1535 1538 1532 1538 1545 1537 1536 1537 1537 1539 1541 1544 1536 1527 1528 1523 1519 1510 1509 1510 1508 1509 1512 1517 1519
1534 1536 1537 1539 1541 1542 1542 1542 1543 1544 1544 1544 1544 1544 1543 1543 1542 1539 1537 1535 1535 1536 1538 1543 1540 1536 1538 1540 1542 1541 1542 1542 1542 1533 1525 1523 1524 1519 1514 1511 1512 1513 1514 1516 1518
1535 1537 1539 1540 1543 1542 1542 1543 1544 1544 1554 1549 1545 1544 1543 1543 1542 1539 1538 1538 1536 1538 1537 1539 1538 1538 1540 1542 1544 1547 1535 1535 1537 1540 1548 1531 1551 1523 1518 1517 1516 1515 1514 1516 1520
1534 1536 1538 1540 1541 1542 1544 1544 1544 1545 1585 1548 1545 1545 1543 1544 1543 1541 1540 1538 1539 1539 1540 1543 1540 1542 1545 1545 1541 1543 1533 1533 1531 1540 1541 1541 1547 1527 1519 1520 1517 1519 1519 1521 1522
1535 1536 1538 1540 1541 1543 1543 1544 1545 1562 1574 1549 1545 1544 1544 1544 1542 1542 1542 1539 1539 1538 1539 1540 1539 1542 1543 1540 1539 1536 1533 1532 1534 1540 1562 1542 1548 1540 1530 1520 1522 1522 1522 1522 1523
1536 1537 1538 1540 1541 1541 1542 1544 1559 1576 1546 1552 1548 1545 1546 1547 1544 1546 1549 1551 1557 1557 1560 1548 1546 1542 1542 1544 1539 1541 1546 1570 1570 1576 1571 1540 1546 1543 1528 1521 1519 1520 1522 1523 1523
1538 1538 1538 1539 1540 1541 1542 1546 1563 1556 1551 1545 1546 1546 1550 1548 1547 1551 1552 1560 1556 1556 1564 1566 1568 1549 1544 1547 1549 1547 1551 1579 1579 1590 1576 1545 1546 1540 1525 1521 1521 1522 1523 1521 1523
1539 1539 1538 1538 1539 1541 1543 1566 1571 1558 1552 1551 1548 1552 1553 1550 1551 1553 1561 1564 1563 1560 1568 1574 1564 1549 1546 1546 1546 1548 1560 1551 1568 1597 1590 1562 1540 1528 1522 1522 1524 1523 1522 1522 1520
1539 1539 1540 1540 1541 1542 1546 1559 1554 1551 1550 1549 1555 1553 1561 1559 1558 1556 1563 1566 1564 1562 1561 1565 1571 1554 1549 1545 1546 1547 1549 1567 1578 1592 1582 1564 1553 1544 1527 1525 1522 1524 1521 1520 1519
1540 1541 1542 1542 1542 1542 1559 1558 1552 1551 1549 1552 1556 1559 1560 1561 1560 1561 1568 1567 1563 1563 1562 1565 1567 1564 1554 1554 1557 1558 1565 1561 1561 1575 1581 1580 1561 1531 1529 1528 1525 1523 1522 1521 1518
1541 1543 1544 1543 1544 1548 1553 1550 1552 1552 1550 1552 1554 1558 1561 1561 1564 1564 1567 1565 1564 1563 1567 1566 1576 1583 1564 1555 1552 1554 1559 1566 1587 1577 1582 1582 1551 1525 1527 1523 1524 1524 1523 1522 1520
1543 1544 1545 1543 1558 1559 1551 1553 1555 1554 1556 1556 1558 1558 1558 1563 1569 1565 1564 1563 1564 1563 1565 1565 1579 1589 1572 1562 1556 1560 1553 1561 1568 1579 1576 1587 1556 1524 1527 1528 1526 1526 1524 1522 1520
1544 1549 1546 1545 1547 1550 1553 1556 1558 1557 1558 1558 1559 1560 1562 1566 1565 1566 1567 1565 1565 1564 1563 1564 1572 1577 1586 1574 1571 1567 1552 1555 1562 1586 1561 1549 1539 1532 1530 1529 1528 1526 1523 1519 1515
1545 1549 1550 1557 1553 1552 1553 1555 1558 1560 1559 1560 1562 1563 1564 1572 1570 1570 1569 1568 1565 1563 1564 1566 1575 1570 1567 1565 1564 1558 1555 1553 1556 1549 1560 1542 1538 1531 1532 1530 1526 1521 1517 1512 1507
1546 1548 1550 1552 1553 1553 1556 1558 1557 1559 1561 1563 1567 1567 1566 1570 1570 1571 1570 1570 1570 1565 1565 1566 1576 1571 1566 1563 1564 1557 1550 1549 1548 1545 1542 1538 1534 1530 1529 1527 1523 1517 1511 1507 1503
1547 1548 1550 1555 1555 1558 1561 1557 1558 1558 1562 1561 1563 1565 1569 1567 1567 1566 1565 1564 1563 1563 1567 1569 1575 1582 1566 1572 1569 1557 1544 1542 1539 1536 1537 1540 1530 1527 1524 1522 1519 1512 1507 1503 1499